SCP
0 0 0 0 0 0 0 0 0 0 0 0 0 0 0 0 0 0 0 0 0 0 0 0 0 0 0 0 0 0 0 0 0 0 0 0 0 0 0 0 0 0 0 0 0 0 0 0 0 0 0 0 0 0
0 0 0 0 0 0 0 0 0 0 0 0 0 0 0 0 0 0 0 0 0 0 0 0 0 0 0 0 0 0 0 0 0 0 0 0 0 0 0 0 0 0 0 0 0 0 0 0 0 0 0 0 0 0
0 0 0 0 0 0 0 0 0 0 0 0 0 0 0 0 0 0 0 0 0 0 0 0 0 0 0 0 0 0 0 0 0 0 0 0 0 0 0 0 0 0 0 0 0 0 0 0 0 0 0 0 0 0
0 0 0 0 0 0 0 0 0 0 0 0 0 0 0 0 0 0 0 0 0 0 0 0 0 0 0 0 0 0 0 0 0 0 0 0 0 0 0 0 0 0 0 0 0 0 0 0 0 0 0 0 0 0
0 0 0 0 0 0 0 0 0 0 0 0 0 0 0 0 0 0 0 0 0 0 0 0 0 0 0 0 0 0 0 0 0 0 0 0 0 0 0 0 0 0 0 0 0 0 0 0 0 0 0 0 0 0
0 0 0 0 0 0 0 0 0 0 0 0 0 0 0 0 0 0 0 0 0 0 0 0 0 0 0 0 0 0 0 0 0 0 0 0 0 0 0 0 0 0 0 0 0 0 0 0 0 0 0 0 0 0
0 0 0 0 0 0 0 0 0 0 0 0 0 0 0 0 0 0 0 0 0 0 0 0 0 0 0 0 0 0 0 0 0 0 0 0 0 0 0 0 0 0 0 0 0 0 0 0 0 0 0 0 0 0
0 0 0 0 0 0 0 0 0 0 0 0 0 0 0 0 0 0 0 0 0 0 0 0 0 0 0 0 0 0 0 0 0 0 0 0 0 0 0 0 0 0 0 0 0 0 0 0 0 0 0 0 0 0
0 0 0 0 0 0 0 0 0 0 0 0 0 0 0 0 0 0 0 0 0 0 0 0 0 0 0 0 0 0 0 0 0 0 0 0 0 0 0 0 0 0 0 0 0 0 0 0 0 0 0 0 0 0
0 0 0 0 0 0 0 0 0 0 0 0 0 0 0 0 0 0 0 0 0 0 0 0 0 0 0 0 0 0 0 0 0 0 0 0 0 0 0 0 0 0 0 0 0 0 0 0 0 0 0 0 0 0
-0 0 0 0 0 0 0 0 0 0 0 0 0 0 0 0 0 0 0 0 0 0 0 0 0 0 0 0 0 0 0 0 0 0 0 0 0 0 0 0 0 0 0 0 0 0 0 0 0 0 0 0 0 0
0 0 0 0 0 0 0 0 0 0 0 0 0 0 0 0 0 0 0 0 0 0 0 0 0 0 0 0 0 0 0 0 0 0 0 0 0 0 0 0 0 0 0 0 0 0 0 0 0 0 0 0 0 0
0 0 0 0 0 0 0 0 0 0 0 0 0 0 0 0 0 0 0 0 0 0 0 0 0 0 0 0 0 0 0 0 0 0 0 0 0 0 0 0 0 0 0 0 0 0 0 0 0 0 0 0 0 0
0 0 0 0 0 0 0 0 0 0 0 0 0 0 0 0 0 0 0 0 0 0 0 0 0 0 0 0 0 0 0 0 0 0 0 0 0 0 0 0 0 0 0 0 0 0 0 0 0 0 0 0 0 0
0 0 0 0 0 0 0 0 0 0 0 0 0 0 0 0 0 0 0 0 0 0 0 0 0 0 0 0 0 0 0 0 0 0 0 0 0 0 0 0 0 0 0 0 0 0 0 0 0 0 0 0 0 0
0 0 0 0 0 0 0 0 0 0 0 0 0 0 0 0 0 0 0 0 0 0 0 0 0 0 0 0 0 0 0 0 0 0 0 0 0 0 0 0 0 0 0 0 0 0 0 0 0 0 0 0 0 0
0 0 0 0 0 0 0 0 0 0 0 0 0 0 0 0 0 0 0 0 0 0 0 0 0 0 0 0 0 0 0 0 0 0 0 0 0 0 0 0 0 0 0 0 0 0 0 0 0 0 0 0 0 0
0 0 0 0 0 0 0 0 0 0 0 0 0 0 0 0 0 0 0 0 0 0 0 0 0 0 0 0 0 0 0 0 0 0 0 0 0 0 0 0 0 0 0 0 0 0 0 0 0 0 0 0 0 0
0 0 0 0 0 0 0 0 0 0 0 0 0 0 0 0 0 0 0 0 0 0 0 0 0 0 0 0 0 0 0 0 0 0 0 0 0 0 0 0 0 0 0 0 0 0 0 0 0 0 0 0 0 0
0 0 0 0 0 0 0 0 0 0 0 0 0 0 0 0 0 0 0 0 0 0 0 0 0 0 0 0 0 0 0 0 0 0 0 0 0 0 0 0 0 0 0 0 0 0 0 0 0 0 0 0 0 0
0 0 0 0 0 0 0 0 0 0 0 0 0 0 0 0 0 0 0 0 0 0 0 0 0 0 0 0 0 0 0 0 0 0 0 0 0 0 0 0 0 0 0 0 0 0 0 0 0 0 0 0 0 0
0 0 0 0 0 0 0 0 0 0 0 0 0 0 0 0 0 0 0 0 0 0 0 0 0 0 0 0 0 0 0 0 0 0 0 0 0 0 0 0 0 0 0 0 0 0 0 0 0 0 0 0 0 0
0 0 0 0 0 0 0 0 0 0 0 0 0 0 0 0 0 0 0 0 0 0 0 0 0 0 0 0 0 0 0 0 0 0 0 0 0 0 0 0 0 0 0 0 0 0 0 0 0 0 0 0 0 0
0 0 0 0 0 0 0 0 0 0 0 0 0 0 0 0 0 0 0 0 0 0 0 0 0 0 0 0 0 0 0 0 0 0 0 0 0 0 0 0 0 0 0 0 0 0 0 0 0 0 0 0 0 0
0 0 0 0 0 0 0 0 0 0 0 0 0 0 0 0 0 0 0 0 0 0 0 0 0 0 0 0 0 0 0 0 0 0 0 0 0 0 0 0 0 0 0 0 0 0 0 0 0 0 0 0 0 0
0 0 0 0 0 0 0 0 0 0 0 0 0 0 0 0 0 0 0 0 0 0 0 0 0 0 0 0 0 0 0 0 0 0 0 0 0 0 0 0 0 0 0 0 0 0 0 0 0 0 0 0 0 0
0 0 0 0 0 0 0 0 0 0 0 0 0 0 0 0 0 0 0 0 0 0 0 0 0 0 0 0 0 0 0 0 0 0 0 0 0 0 0 0 0 0 0 0 0 0 0 0 0 0 0 0 0 0
0 0 0 0 0 0 0 0 0 0 0 0 0 0 0 0 0 0 0 0 0 0 0 0 0 0 0 0 0 0 0 0 0 0 0 0 0 0 0 0 0 0 0 0 0 0 0 0 0 0 0 0 0 0
0 0 0 0 0 0 0 0 0 0 0 0 0 0 0 0 0 0 0 0 0 0 0 0 0 0 0 0 0 0 0 0 0 0 0 0 0 0 0 0 0 0 0 0 0 0 0 0 0 0 0 0 0 0
0 0 0 0 0 0 0 0 0 0 0 0 0 0 0 0 0 0 0 0 0 0 0 0 0 0 0 0 0 0 0 0 0 0 0 0 0 0 0 0 0 0 0 0 0 0 0 0 0 0 0 0 0 0
0 0 0 0 0 0 0 0 0 0 0 0 0 0 0 0 0 0 0 0 0 0 0 0 0 0 0 0 0 0 0 0 0 0 0 0 0 0 0 0 0 0 0 0 0 0 0 0 0 0 0 0 0 0
0 0 0 0 0 0 0 0 0 0 0 0 0 0 0 0 0 0 0 0 0 0 0 0 0 0 0 0 0 0 0 0 0 0 0 0 0 0 0 0 0 0 0 0 0 0 0 0 0 0 0 0 0 0
0 0 0 0 0 0 0 0 0 0 0 0 0 0 0 0 0 0 0 0 0 0 0 0 0 0 0 0 0 0 0 0 0 0 0 0 0 0 0 0 0 0 0 0 0 0 0 0 0 0 0 0 0 0
Wind_Speed_500mb
62 55 53 57 53 52 59 45 52 47 48 44 41 44 42 41 36 46 34 28 37 15 16 23 21 12 16 21 10 22 13 0 5 6 8 9 6 13 5 6 14 14 16 9 5 8 16 26 13 15 13 12 14 28
64 59 57 58 56 56 54 59 53 48 50 49 46 47 42 46 45 51 42 33 32 22 13 35 35 26 28 31 31 50 14 16 22 6 2 6 2 1 8 8 5 5 14 12 21 15 8 42 33 58 50 36 36 41
65 64 59 63 59 55 59 64 61 64 56 52 56 50 52 46 47 52 52 40 41 32 31 44 35 32 36 28 30 23 12 21 21 13 15 5 7 7 8 9 5 8 11 8 8 11 16 30 48 41 39 52 57 53
65 63 63 61 61 48 42 50 55 58 55 51 52 48 54 56 62 53 57 54 48 11 9 12 25 40 37 38 41 41 27 38 18 24 8 6 6 17 7 7 10 14 14 9 7 14 36 44 53 59 70 71 69 66
65 64 61 59 59 56 51 43 37 43 55 55 55 45 48 51 57 55 54 53 56 45 9 6 14 29 35 48 53 50 49 39 37 14 4 6 9 7 1 2 7 27 26 11 14 48 41 45 56 58 62 62 63 63
58 69 60 59 56 56 61 57 47 37 31 36 37 48 54 45 38 38 22 51 61 65 16 6 22 44 40 41 63 63 59 49 41 21 8 12 15 23 8 9 38 70 48 60 49 78 58 65 69 74 74 72 70 63
51 56 55 61 59 53 49 54 55 50 48 39 34 30 25 32 38 39 15 15 35 65 14 5 6 17 46 53 56 59 58 38 33 19 19 18 18 30 6 14 55 43 60 73 74 64 53 78 56 73 63 64 63 57
49 56 56 57 57 53 51 48 48 47 44 39 36 34 30 28 32 36 45 17 28 51 16 6 4 3 28 19 16 25 22 32 28 20 13 12 16 15 14 35 45 67 82 61 75 76 75 77 68 70 68 66 63 64
48 48 58 61 53 50 47 47 47 48 42 37 30 27 28 33 29 28 30 27 30 32 6 8 10 9 26 9 16 16 25 8 21 12 11 20 7 15 19 35 58 78 65 74 71 58 52 55 59 57 58 61 61 55
49 59 48 59 49 44 43 40 46 55 41 34 32 18 17 27 29 23 22 19 21 20 21 8 17 4 19 8 5 10 10 5 6 7 19 11 18 85 57 51 65 72 78 73 60 65 61 55 51 54 53 47 43 41
43 40 40 43 41 40 38 36 36 36 37 38 21 18 20 41 37 23 16 18 17 8 17 21 34 9 20 7 6 13 6 7 8 9 13 7 16 39 63 79 98 97 91 73 67 62 57 56 51 38 37 38 37 37
30 40 41 39 36 36 35 33 34 43 30 32 23 22 26 20 17 10 10 6 8 12 10 12 19 40 25 18 7 13 9 8 12 12 8 8 24 54 58 77 86 85 84 76 65 56 51 42 36 34 36 35 34 34
33 42 35 29 24 23 22 32 42 45 39 36 19 14 12 9 7 12 16 5 6 6 20 17 5 25 16 18 7 9 13 11 14 9 9 11 31 52 66 65 72 73 65 55 48 42 37 34 29 27 28 29 29 27
8 12 19 23 23 21 22 28 32 51 45 15 15 11 10 6 7 8 9 9 11 15 41 32 11 7 13 9 7 9 8 7 10 9 14 16 41 59 48 57 62 62 53 45 39 34 30 26 24 24 23 19 17 17
12 14 15 14 18 21 27 34 38 53 14 9 10 9 9 6 3 2 9 8 9 16 39 13 6 12 4 8 8 5 7 8 9 11 8 14 27 38 46 50 53 50 46 40 34 29 26 23 19 16 14 12 10 12
8 11 13 14 20 19 16 18 28 22 19 15 11 6 3 5 6 3 7 9 10 24 17 6 5 6 9 7 12 13 12 14 10 7 9 17 18 22 33 35 33 34 37 35 29 25 22 18 14 10 7 7 10 14
8 7 5 13 20 23 25 27 21 9 6 10 5 13 16 8 11 13 15 9 16 15 3 3 7 10 1 5 6 7 9 5 5 6 10 5 6 13 24 29 33 30 25 27 26 21 17 15 10 7 7 9 10 12
13 14 15 13 17 21 19 20 10 7 6 6 4 5 9 10 16 13 16 19 16 16 5 3 6 7 5 5 6 4 10 8 5 2 2 4 13 19 23 26 28 28 25 23 23 22 19 13 8 5 4 4 6 8
6 11 11 12 25 19 17 9 4 7 5 5 10 9 6 7 9 8 9 12 15 11 9 4 5 6 3 3 4 8 6 6 4 5 14 16 16 17 21 26 26 27 24 22 20 16 12 8 6 5 3 0 1 2
14 14 17 12 20 11 9 8 7 10 4 5 8 8 9 9 10 8 7 8 10 5 5 5 3 5 6 7 7 10 10 9 9 8 8 16 18 21 21 20 23 23 21 18 15 13 10 9 8 6 5 2 1 3
22 20 13 9 6 11 11 7 10 8 9 9 10 7 8 9 8 8 9 10 11 11 5 10 10 13 11 10 9 6 5 2 7 7 4 17 22 21 21 22 20 18 16 15 13 13 12 11 9 5 3 3 3 4
15 14 11 7 8 9 13 12 10 8 7 8 7 8 9 4 9 10 9 19 11 10 12 15 16 15 11 8 6 4 2 2 3 1 8 14 25 24 23 19 17 17 17 16 14 12 10 8 6 4 4 4 4 5
23 15 8 9 8 11 6 8 6 7 6 3 4 5 5 5 6 7 11 10 10 23 24 18 15 12 10 7 3 2 2 2 3 8 17 16 18 18 19 20 20 14 12 11 10 9 8 7 5 5 4 4 5 7
15 10 14 12 17 4 5 9 8 7 7 6 5 5 5 4 8 9 6 7 17 27 20 15 15 12 8 7 7 3 3 6 7 12 15 13 16 21 21 17 14 10 8 7 7 7 7 7 6 5 5 6 8 8
9 21 15 13 16 10 10 8 9 6 5 5 4 5 4 9 5 7 5 13 25 30 26 17 15 12 10 7 5 5 9 13 14 15 20 18 13 12 11 9 7 4 4 6 7 8 7 7 7 8 9 10 12 12
16 19 12 7 11 7 6 6 7 4 5 5 6 6 5 5 8 5 3 21 23 28 25 20 20 16 16 14 14 15 16 16 14 11 12 10 8 6 2 1 2 4 6 7 9 9 10 11 12 14 14 15 18 19
11 10 14 17 8 5 6 8 5 7 9 8 6 9 5 9 7 4 13 20 29 24 14 13 15 18 19 17 16 14 12 10 10 8 5 4 3 3 4 5 6 7 7 9 11 12 14 17 18 20 21 21 20 23
11 21 10 24 12 16 6 6 8 8 6 13 3 11 7 7 2 15 11 23 18 13 15 16 16 17 16 15 12 10 9 7 7 8 8 8 8 8 8 8 9 10 10 11 13 15 17 20 23 24 27 28 26 25
12 28 12 8 8 14 14 7 3 6 11 7 4 6 6 10 18 17 18 18 15 14 14 17 17 14 13 14 13 12 11 9 4 4 5 7 6 9 12 14 16 18 19 20 21 24 26 28 29 31 33 36 38 42
17 29 11 10 9 9 9 11 7 11 18 21 25 40 34 35 42 34 30 27 24 24 21 19 18 14 15 14 17 18 18 18 17 16 15 15 19 20 21 21 22 23 26 27 28 29 31 35 38 43 48 54 58 62
21 19 6 12 8 9 10 14 18 18 17 20 24 22 19 29 55 60 56 50 46 40 36 35 31 28 24 21 19 17 15 19 20 20 21 24 27 30 33 34 35 38 41 44 46 48 51 53 55 58 61 64 64 64
24 16 8 6 5 11 12 7 6 7 6 6 7 10 12 10 10 21 47 37 40 43 43 39 32 22 20 23 21 24 28 35 36 34 35 36 39 40 41 42 43 46 47 47 49 52 54 57 61 62 64 66 66 65
7 11 12 6 5 6 15 10 3 6 7 6 8 13 15 9 10 7 38 38 37 39 39 41 42 43 32 34 35 31 37 49 51 48 45 45 46 49 52 53 52 55 56 58 60 60 60 61 63 64 65 65 65 65
Wind_Direction_500mb
249 241 241 243 238 231 233 238 224 218 216 216 220 220 216 215 216 217 215 203 206 211 251 213 209 193 158 168 139 157 101 170 88 141 153 179 179 209 157 178 171 157 163 194 142 202 268 195 127 184 207 181 236 246
246 242 241 243 243 234 230 231 229 224 222 222 221 221 222 218 213 212 214 211 207 216 244 230 229 207 207 209 169 166 166 153 162 117 197 110 177 72 163 225 143 222 191 180 189 203 235 191 211 218 239 246 255 249
243 239 245 240 241 238 233 228 225 228 233 230 229 230 222 217 215 214 219 216 203 220 256 255 242 224 218 209 214 161 203 167 184 154 152 173 195 128 165 239 150 256 157 214 95 215 220 203 221 232 247 266 271 267
242 238 234 231 228 231 236 228 223 226 225 226 225 222 220 220 215 211 216 220 216 187 212 260 228 226 213 214 215 216 223 193 178 178 155 146 170 193 197 169 179 205 162 196 273 284 263 247 246 258 269 276 275 264
236 235 231 231 225 231 233 224 222 229 230 227 221 221 219 220 214 211 218 223 222 202 196 236 232 220 210 212 214 211 215 199 175 159 136 206 184 126 313 105 241 204 226 217 237 249 246 257 266 267 269 270 273 271
237 231 225 225 228 229 225 227 229 225 222 226 223 220 222 220 213 209 209 228 230 228 223 198 232 226 221 217 214 214 214 204 197 188 179 224 216 176 185 208 240 237 237 244 242 257 264 267 269 270 275 276 274 265
227 229 223 221 225 225 227 223 218 227 224 225 232 228 220 217 219 201 188 203 212 214 203 208 268 203 206 212 215 216 221 209 206 201 204 207 195 189 195 222 239 238 250 257 256 257 261 265 255 270 274 279 276 270
231 230 221 219 219 218 216 212 212 208 204 208 206 209 220 229 225 235 247 209 186 188 203 200 225 227 192 179 183 194 200 198 206 206 211 196 172 203 235 238 247 254 258 259 260 261 256 267 265 271 277 277 273 271
229 230 222 206 207 212 207 214 211 205 206 206 209 213 214 217 222 229 238 248 249 212 210 169 160 221 164 129 164 171 179 195 193 201 200 169 178 223 220 219 231 242 240 249 261 262 258 259 270 275 276 275 270 263
232 236 210 190 197 198 197 202 191 188 192 187 192 180 209 213 202 176 177 194 214 209 210 200 166 182 167 135 130 133 183 205 185 227 159 204 229 237 237 243 246 247 255 253 249 260 261 266 269 276 273 267 257 249
200 172 168 175 176 179 182 186 186 173 180 180 180 201 190 160 164 179 193 192 187 208 206 198 181 139 181 138 160 201 183 177 195 221 186 205 246 242 239 240 246 251 258 258 257 259 263 271 272 262 250 243 241 249
156 153 148 146 159 171 176 180 184 185 181 183 170 163 171 181 175 190 182 150 190 211 197 163 184 194 172 163 137 179 184 190 218 142 151 227 246 246 243 242 247 250 253 255 254 254 256 249 248 240 236 240 243 244
120 136 146 152 164 172 182 188 192 203 192 165 181 180 166 203 191 193 176 216 170 191 177 164 165 161 144 175 169 178 198 209 113 188 218 225 249 246 244 245 243 243 243 240 236 229 229 229 229 230 229 227 232 241
126 155 170 180 185 191 194 187 191 193 173 164 165 182 189 185 236 186 182 176 201 176 175 169 129 150 163 178 180 209 196 135 203 204 226 242 237 250 252 239 230 227 223 221 218 214 212 215 216 215 218 225 239 252
137 155 167 175 192 195 197 194 199 199 165 161 164 204 194 208 228 169 177 152 161 183 167 134 122 151 176 205 199 153 172 214 208 224 231 276 280 260 239 225 217 211 206 203 201 201 203 202 202 210 217 226 243 272
141 183 157 186 184 185 200 214 214 207 183 178 195 109 94 70 321 138 114 116 116 155 147 137 159 214 206 208 191 197 166 208 232 215 301 309 288 257 223 209 202 196 188 185 185 186 187 189 192 201 228 262 282 293
51 44 289 217 209 212 205 210 216 216 266 190 178 165 170 144 165 154 125 109 150 147 156 168 218 228 182 226 229 185 203 225 345 331 317 320 264 207 198 189 179 175 178 169 166 167 170 172 182 202 243 279 302 316
304 310 294 281 246 207 205 211 202 174 80 54 100 97 133 128 139 157 166 178 181 167 161 281 333 221 223 214 271 350 7 359 351 329 48 146 150 159 155 157 154 152 164 157 153 159 166 171 180 208 247 282 319 332
276 281 256 195 184 176 173 183 194 95 71 70 95 116 124 120 136 163 183 185 184 166 155 132 217 201 201 58 340 5 24 321 275 166 133 129 135 142 146 147 147 150 158 154 151 154 158 166 174 183 184 243 310 343
247 264 271 229 190 151 111 76 109 106 114 108 108 93 86 77 102 98 99 128 143 156 70 35 42 6 351 340 328 301 318 314 230 174 147 135 148 147 149 148 149 154 157 157 157 159 163 167 171 170 166 167 272 340
280 264 249 207 131 94 92 75 69 81 106 105 103 85 76 88 66 58 59 69 70 37 49 34 8 355 350 344 331 326 335 245 247 263 290 188 168 160 161 159 160 162 166 166 166 166 167 172 176 186 209 257 284 312
208 186 156 141 83 78 79 58 89 91 80 90 73 65 47 42 34 24 31 53 54 24 0 350 342 338 345 349 353 15 35 22 359 44 153 180 172 169 173 171 170 169 163 161 161 170 180 187 195 209 230 264 299 327
141 137 87 65 91 55 45 58 79 43 80 73 86 74 43 36 30 50 73 59 51 2 356 354 350 343 337 333 325 352 40 85 100 128 136 155 165 165 167 163 155 153 164 168 180 191 198 205 215 214 233 276 304 317
110 63 38 42 35 56 50 38 47 60 58 38 58 85 40 358 11 66 74 46 3 3 9 7 356 353 350 345 346 9 76 107 117 131 128 132 147 149 147 148 147 161 179 195 213 215 205 197 203 224 259 288 301 306
87 14 22 16 21 34 38 23 5 51 69 27 78 61 12 358 68 56 56 358 356 3 6 10 9 12 4 359 14 90 112 107 99 111 110 109 117 133 144 141 142 169 208 223 227 220 211 219 235 255 276 293 302 302
68 12 35 342 4 46 351 62 33 18 4 63 41 335 356 61 62 51 354 345 350 351 357 11 22 45 55 69 88 100 104 109 109 108 113 119 127 125 111 117 244 263 260 253 254 242 240 251 263 273 283 293 298 303
52 350 12 27 354 336 61 36 43 48 49 27 353 352 25 64 56 323 350 355 352 359 21 39 66 70 72 80 87 90 84 86 91 89 82 65 34 359 330 312 292 284 284 273 266 263 260 263 271 280 286 287 293 298
62 25 20 340 26 30 97 46 35 34 4 347 295 33 66 39 327 331 329 341 2 45 60 70 73 72 77 75 72 74 70 63 75 87 69 51 47 35 18 354 335 316 300 289 288 285 282 280 282 284 287 290 292 294
35 354 355 7 51 51 43 43 51 21 352 4 48 67 75 38 16 18 22 29 51 73 73 74 72 71 74 66 60 54 50 57 80 66 49 47 25 353 332 322 313 307 303 299 295 291 287 285 284 284 285 288 290 292
1 359 4 26 54 36 7 23 37 52 61 78 96 108 88 58 48 58 60 62 66 64 63 60 59 71 77 75 67 58 50 41 35 24 9 352 341 335 330 322 314 307 303 300 296 290 287 286 286 285 286 289 291 294
354 349 46 47 77 38 40 74 79 81 84 89 106 108 111 88 66 57 56 63 67 69 66 63 68 72 60 46 30 15 8 8 359 348 333 323 317 315 312 308 304 300 295 291 289 287 285 284 284 285 285 287 289 292
4 24 13 55 36 37 42 46 62 84 88 78 76 107 112 99 71 39 25 37 42 40 39 37 30 18 15 5 342 328 326 334 333 326 320 316 313 311 309 307 306 303 300 297 293 290 289 290 290 291 292 293 294 295
2 21 39 56 29 24 4 8 98 105 78 83 73 76 78 82 85 78 31 28 19 14 8 3 2 2 350 338 339 318 310 316 317 314 310 306 303 301 301 303 301 296 295 294 293 294 293 293 294 295 296 297 297 297
Wind_Speed_850mb
62 55 53 57 53 52 59 45 52 47 48 44 41 44 42 41 36 46 34 28 37 15 16 23 21 12 16 21 10 22 13 0 5 6 8 9 6 13 5 6 14 14 16 9 5 8 16 26 13 15 13 12 14 28
64 59 57 58 56 56 54 59 53 48 50 49 46 47 42 46 45 51 42 33 32 22 13 35 35 26 28 31 31 50 14 16 22 6 2 6 2 1 8 8 5 5 14 12 21 15 8 42 33 58 50 36 36 41
65 64 59 63 59 55 59 64 61 64 56 52 56 50 52 46 47 52 52 40 41 32 31 44 35 32 36 28 30 23 12 21 21 13 15 5 7 7 8 9 5 8 11 8 8 11 16 30 48 41 39 52 57 53
65 63 63 61 61 48 42 50 55 58 55 51 52 48 54 56 62 53 57 54 48 11 9 12 25 40 37 38 41 41 27 38 18 24 8 6 6 17 7 7 10 14 14 9 7 14 36 44 53 59 70 71 69 66
65 64 61 59 59 56 51 43 37 43 55 55 55 45 48 51 57 55 54 53 56 45 9 6 14 29 35 48 53 50 49 39 37 14 4 6 9 7 1 2 7 27 26 11 14 48 41 45 56 58 62 62 63 63
58 69 60 59 56 56 61 57 47 37 31 36 37 48 54 45 38 38 22 51 61 65 16 6 22 44 40 41 63 63 59 49 41 21 8 12 15 23 8 9 38 70 48 60 49 78 58 65 69 74 74 72 70 63
51 56 55 61 59 53 49 54 55 50 48 39 34 30 25 32 38 39 15 15 35 65 14 5 6 17 46 53 56 59 58 38 33 19 19 18 18 30 6 14 55 43 60 73 74 64 53 78 56 73 63 64 63 57
49 56 56 57 57 53 51 48 48 47 44 39 36 34 30 28 32 36 45 17 28 51 16 6 4 3 28 19 16 25 22 32 28 20 13 12 16 15 14 35 45 67 82 61 75 76 75 77 68 70 68 66 63 64
48 48 58 61 53 50 47 47 47 48 42 37 30 27 28 33 29 28 30 27 30 32 6 8 10 9 26 9 16 16 25 8 21 12 11 20 7 15 19 35 58 78 65 74 71 58 52 55 59 57 58 61 61 55
49 59 48 59 49 44 43 40 46 55 41 34 32 18 17 27 29 23 22 19 21 20 21 8 17 4 19 8 5 10 10 5 6 7 19 11 18 85 57 51 65 72 78 73 60 65 61 55 51 54 53 47 43 41
43 40 40 43 41 40 38 36 36 36 37 38 21 18 20 41 37 23 16 18 17 8 17 21 34 9 20 7 6 13 6 7 8 9 13 7 16 39 63 79 98 97 91 73 67 62 57 56 51 38 37 38 37 37
30 40 41 39 36 36 35 33 34 43 30 32 23 22 26 20 17 10 10 6 8 12 10 12 19 40 25 18 7 13 9 8 12 12 8 8 24 54 58 77 86 85 84 76 65 56 51 42 36 34 36 35 34 34
33 42 35 29 24 23 22 32 42 45 39 36 19 14 12 9 7 12 16 5 6 6 20 17 5 25 16 18 7 9 13 11 14 9 9 11 31 52 66 65 72 73 65 55 48 42 37 34 29 27 28 29 29 27
8 12 19 23 23 21 22 28 32 51 45 15 15 11 10 6 7 8 9 9 11 15 41 32 11 7 13 9 7 9 8 7 10 9 14 16 41 59 48 57 62 62 53 45 39 34 30 26 24 24 23 19 17 17
12 14 15 14 18 21 27 34 38 53 14 9 10 9 9 6 3 2 9 8 9 16 39 13 6 12 4 8 8 5 7 8 9 11 8 14 27 38 46 50 53 50 46 40 34 29 26 23 19 16 14 12 10 12
8 11 13 14 20 19 16 18 28 22 19 15 11 6 3 5 6 3 7 9 10 24 17 6 5 6 9 7 12 13 12 14 10 7 9 17 18 22 33 35 33 34 37 35 29 25 22 18 14 10 7 7 10 14
8 7 5 13 20 23 25 27 21 9 6 10 5 13 16 8 11 13 15 9 16 15 3 3 7 10 1 5 6 7 9 5 5 6 10 5 6 13 24 29 33 30 25 27 26 21 17 15 10 7 7 9 10 12
13 14 15 13 17 21 19 20 10 7 6 6 4 5 9 10 16 13 16 19 16 16 5 3 6 7 5 5 6 4 10 8 5 2 2 4 13 19 23 26 28 28 25 23 23 22 19 13 8 5 4 4 6 8
6 11 11 12 25 19 17 9 4 7 5 5 10 9 6 7 9 8 9 12 15 11 9 4 5 6 3 3 4 8 6 6 4 5 14 16 16 17 21 26 26 27 24 22 20 16 12 8 6 5 3 0 1 2
14 14 17 12 20 11 9 8 7 10 4 5 8 8 9 9 10 8 7 8 10 5 5 5 3 5 6 7 7 10 10 9 9 8 8 16 18 21 21 20 23 23 21 18 15 13 10 9 8 6 5 2 1 3
22 20 13 9 6 11 11 7 10 8 9 9 10 7 8 9 8 8 9 10 11 11 5 10 10 13 11 10 9 6 5 2 7 7 4 17 22 21 21 22 20 18 16 15 13 13 12 11 9 5 3 3 3 4
15 14 11 7 8 9 13 12 10 8 7 8 7 8 9 4 9 10 9 19 11 10 12 15 16 15 11 8 6 4 2 2 3 1 8 14 25 24 23 19 17 17 17 16 14 12 10 8 6 4 4 4 4 5
23 15 8 9 8 11 6 8 6 7 6 3 4 5 5 5 6 7 11 10 10 23 24 18 15 12 10 7 3 2 2 2 3 8 17 16 18 18 19 20 20 14 12 11 10 9 8 7 5 5 4 4 5 7
15 10 14 12 17 4 5 9 8 7 7 6 5 5 5 4 8 9 6 7 17 27 20 15 15 12 8 7 7 3 3 6 7 12 15 13 16 21 21 17 14 10 8 7 7 7 7 7 6 5 5 6 8 8
9 21 15 13 16 10 10 8 9 6 5 5 4 5 4 9 5 7 5 13 25 30 26 17 15 12 10 7 5 5 9 13 14 15 20 18 13 12 11 9 7 4 4 6 7 8 7 7 7 8 9 10 12 12
16 19 12 7 11 7 6 6 7 4 5 5 6 6 5 5 8 5 3 21 23 28 25 20 20 16 16 14 14 15 16 16 14 11 12 10 8 6 2 1 2 4 6 7 9 9 10 11 12 14 14 15 18 19
11 10 14 17 8 5 6 8 5 7 9 8 6 9 5 9 7 4 13 20 29 24 14 13 15 18 19 17 16 14 12 10 10 8 5 4 3 3 4 5 6 7 7 9 11 12 14 17 18 20 21 21 20 23
11 21 10 24 12 16 6 6 8 8 6 13 3 11 7 7 2 15 11 23 18 13 15 16 16 17 16 15 12 10 9 7 7 8 8 8 8 8 8 8 9 10 10 11 13 15 17 20 23 24 27 28 26 25
12 28 12 8 8 14 14 7 3 6 11 7 4 6 6 10 18 17 18 18 15 14 14 17 17 14 13 14 13 12 11 9 4 4 5 7 6 9 12 14 16 18 19 20 21 24 26 28 29 31 33 36 38 42
17 29 11 10 9 9 9 11 7 11 18 21 25 40 34 35 42 34 30 27 24 24 21 19 18 14 15 14 17 18 18 18 17 16 15 15 19 20 21 21 22 23 26 27 28 29 31 35 38 43 48 54 58 62
21 19 6 12 8 9 10 14 18 18 17 20 24 22 19 29 55 60 56 50 46 40 36 35 31 28 24 21 19 17 15 19 20 20 21 24 27 30 33 34 35 38 41 44 46 48 51 53 55 58 61 64 64 64
24 16 8 6 5 11 12 7 6 7 6 6 7 10 12 10 10 21 47 37 40 43 43 39 32 22 20 23 21 24 28 35 36 34 35 36 39 40 41 42 43 46 47 47 49 52 54 57 61 62 64 66 66 65
7 11 12 6 5 6 15 10 3 6 7 6 8 13 15 9 10 7 38 38 37 39 39 41 42 43 32 34 35 31 37 49 51 48 45 45 46 49 52 53 52 55 56 58 60 60 60 61 63 64 65 65 65 65
Wind_Direction_850mb
249 241 241 243 238 231 233 238 224 218 216 216 220 220 216 215 216 217 215 203 206 211 251 213 209 193 158 168 139 157 101 170 88 141 153 179 179 209 157 178 171 157 163 194 142 202 268 195 127 184 207 181 236 246
246 242 241 243 243 234 230 231 229 224 222 222 221 221 222 218 213 212 214 211 207 216 244 230 229 207 207 209 169 166 166 153 162 117 197 110 177 72 163 225 143 222 191 180 189 203 235 191 211 218 239 246 255 249
243 239 245 240 241 238 233 228 225 228 233 230 229 230 222 217 215 214 219 216 203 220 256 255 242 224 218 209 214 161 203 167 184 154 152 173 195 128 165 239 150 256 157 214 95 215 220 203 221 232 247 266 271 267
242 238 234 231 228 231 236 228 223 226 225 226 225 222 220 220 215 211 216 220 216 187 212 260 228 226 213 214 215 216 223 193 178 178 155 146 170 193 197 169 179 205 162 196 273 284 263 247 246 258 269 276 275 264
236 235 231 231 225 231 233 224 222 229 230 227 221 221 219 220 214 211 218 223 222 202 196 236 232 220 210 212 214 211 215 199 175 159 136 206 184 126 313 105 241 204 226 217 237 249 246 257 266 267 269 270 273 271
237 231 225 225 228 229 225 227 229 225 222 226 223 220 222 220 213 209 209 228 230 228 223 198 232 226 221 217 214 214 214 204 197 188 179 224 216 176 185 208 240 237 237 244 242 257 264 267 269 270 275 276 274 265
227 229 223 221 225 225 227 223 218 227 224 225 232 228 220 217 219 201 188 203 212 214 203 208 268 203 206 212 215 216 221 209 206 201 204 207 195 189 195 222 239 238 250 257 256 257 261 265 255 270 274 279 276 270
231 230 221 219 219 218 216 212 212 208 204 208 206 209 220 229 225 235 247 209 186 188 203 200 225 227 192 179 183 194 200 198 206 206 211 196 172 203 235 238 247 254 258 259 260 261 256 267 265 271 277 277 273 271
229 230 222 206 207 212 207 214 211 205 206 206 209 213 214 217 222 229 238 248 249 212 210 169 160 221 164 129 164 171 179 195 193 201 200 169 178 223 220 219 231 242 240 249 261 262 258 259 270 275 276 275 270 263
232 236 210 190 197 198 197 202 191 188 192 187 192 180 209 213 202 176 177 194 214 209 210 200 166 182 167 135 130 133 183 205 185 227 159 204 229 237 237 243 246 247 255 253 249 260 261 266 269 276 273 267 257 249
200 172 168 175 176 179 182 186 186 173 180 180 180 201 190 160 164 179 193 192 187 208 206 198 181 139 181 138 160 201 183 177 195 221 186 205 246 242 239 240 246 251 258 258 257 259 263 271 272 262 250 243 241 249
156 153 148 146 159 171 176 180 184 185 181 183 170 163 171 181 175 190 182 150 190 211 197 163 184 194 172 163 137 179 184 190 218 142 151 227 246 246 243 242 247 250 253 255 254 254 256 249 248 240 236 240 243 244
120 136 146 152 164 172 182 188 192 203 192 165 181 180 166 203 191 193 176 216 170 191 177 164 165 161 144 175 169 178 198 209 113 188 218 225 249 246 244 245 243 243 243 240 236 229 229 229 229 230 229 227 232 241
126 155 170 180 185 191 194 187 191 193 173 164 165 182 189 185 236 186 182 176 201 176 175 169 129 150 163 178 180 209 196 135 203 204 226 242 237 250 252 239 230 227 223 221 218 214 212 215 216 215 218 225 239 252
137 155 167 175 192 195 197 194 199 199 165 161 164 204 194 208 228 169 177 152 161 183 167 134 122 151 176 205 199 153 172 214 208 224 231 276 280 260 239 225 217 211 206 203 201 201 203 202 202 210 217 226 243 272
141 183 157 186 184 185 200 214 214 207 183 178 195 109 94 70 321 138 114 116 116 155 147 137 159 214 206 208 191 197 166 208 232 215 301 309 288 257 223 209 202 196 188 185 185 186 187 189 192 201 228 262 282 293
51 44 289 217 209 212 205 210 216 216 266 190 178 165 170 144 165 154 125 109 150 147 156 168 218 228 182 226 229 185 203 225 345 331 317 320 264 207 198 189 179 175 178 169 166 167 170 172 182 202 243 279 302 316
304 310 294 281 246 207 205 211 202 174 80 54 100 97 133 128 139 157 166 178 181 167 161 281 333 221 223 214 271 350 7 359 351 329 48 146 150 159 155 157 154 152 164 157 153 159 166 171 180 208 247 282 319 332
276 281 256 195 184 176 173 183 194 95 71 70 95 116 124 120 136 163 183 185 184 166 155 132 217 201 201 58 340 5 24 321 275 166 133 129 135 142 146 147 147 150 158 154 151 154 158 166 174 183 184 243 310 343
247 264 271 229 190 151 111 76 109 106 114 108 108 93 86 77 102 98 99 128 143 156 70 35 42 6 351 340 328 301 318 314 230 174 147 135 148 147 149 148 149 154 157 157 157 159 163 167 171 170 166 167 272 340
280 264 249 207 131 94 92 75 69 81 106 105 103 85 76 88 66 58 59 69 70 37 49 34 8 355 350 344 331 326 335 245 247 263 290 188 168 160 161 159 160 162 166 166 166 166 167 172 176 186 209 257 284 312
208 186 156 141 83 78 79 58 89 91 80 90 73 65 47 42 34 24 31 53 54 24 0 350 342 338 345 349 353 15 35 22 359 44 153 180 172 169 173 171 170 169 163 161 161 170 180 187 195 209 230 264 299 327
141 137 87 65 91 55 45 58 79 43 80 73 86 74 43 36 30 50 73 59 51 2 356 354 350 343 337 333 325 352 40 85 100 128 136 155 165 165 167 163 155 153 164 168 180 191 198 205 215 214 233 276 304 317
110 63 38 42 35 56 50 38 47 60 58 38 58 85 40 358 11 66 74 46 3 3 9 7 356 353 350 345 346 9 76 107 117 131 128 132 147 149 147 148 147 161 179 195 213 215 205 197 203 224 259 288 301 306
87 14 22 16 21 34 38 23 5 51 69 27 78 61 12 358 68 56 56 358 356 3 6 10 9 12 4 359 14 90 112 107 99 111 110 109 117 133 144 141 142 169 208 223 227 220 211 219 235 255 276 293 302 302
68 12 35 342 4 46 351 62 33 18 4 63 41 335 356 61 62 51 354 345 350 351 357 11 22 45 55 69 88 100 104 109 109 108 113 119 127 125 111 117 244 263 260 253 254 242 240 251 263 273 283 293 298 303
52 350 12 27 354 336 61 36 43 48 49 27 353 352 25 64 56 323 350 355 352 359 21 39 66 70 72 80 87 90 84 86 91 89 82 65 34 359 330 312 292 284 284 273 266 263 260 263 271 280 286 287 293 298
62 25 20 340 26 30 97 46 35 34 4 347 295 33 66 39 327 331 329 341 2 45 60 70 73 72 77 75 72 74 70 63 75 87 69 51 47 35 18 354 335 316 300 289 288 285 282 280 282 284 287 290 292 294
35 354 355 7 51 51 43 43 51 21 352 4 48 67 75 38 16 18 22 29 51 73 73 74 72 71 74 66 60 54 50 57 80 66 49 47 25 353 332 322 313 307 303 299 295 291 287 285 284 284 285 288 290 292
1 359 4 26 54 36 7 23 37 52 61 78 96 108 88 58 48 58 60 62 66 64 63 60 59 71 77 75 67 58 50 41 35 24 9 352 341 335 330 322 314 307 303 300 296 290 287 286 286 285 286 289 291 294
354 349 46 47 77 38 40 74 79 81 84 89 106 108 111 88 66 57 56 63 67 69 66 63 68 72 60 46 30 15 8 8 359 348 333 323 317 315 312 308 304 300 295 291 289 287 285 284 284 285 285 287 289 292
4 24 13 55 36 37 42 46 62 84 88 78 76 107 112 99 71 39 25 37 42 40 39 37 30 18 15 5 342 328 326 334 333 326 320 316 313 311 309 307 306 303 300 297 293 290 289 290 290 291 292 293 294 295
2 21 39 56 29 24 4 8 98 105 78 83 73 76 78 82 85 78 31 28 19 14 8 3 2 2 350 338 339 318 310 316 317 314 310 306 303 301 301 303 301 296 295 294 293 294 293 293 294 295 296 297 297 297